Regional Weather Roundup
Issued by NWS

Home | Current Version | Previous Version | Graphics & Text | Print | Product List | Glossary On
Versions: 1 2 3 4 5 6 7 8 9 10 11 12 13 14 15 16 17 18 19 20 21 22 23 24 25 26 27 28 29 30 31 32 33 34 35 36 37 38 39 40 41 42 43 44 45 46 47 48 49 50
000
ASUS43 KLMK 171410
RWRKY
KENTUCKY REGIONAL WEATHER ROUNDUP
NATIONAL WEATHER SERVICE LOUISVILLE KY
1000 AM EDT THU AUG 17 2017

NOTE "FAIR" INDICATES FEW OR NO CLOUDS BELOW 12,000 FEET
WITH NO SIGNIFICANT WEATHER AND/OR OBSTRUCTIONS TO VISIBILITY.

KYZ001>023-026-027-061>063-070>075-171500-
WESTERN AND SOUTH CENTRAL KENTUCKY

CITY           SKY/WX    TMP DP  RH WIND       PRES   REMARKS
PADUCAH        CLOUDY    80  73  79 SW10      29.94R
HENDERSON      PTSUNNY   81  76  84 SW9       29.92S
OWENSBORO      MOSUNNY   82  75  79 SW15      29.93F
HOPKINSVILLE   PTSUNNY   80  74  84 SW12      29.98F
BOWLING GREEN  SUNNY     82  75  79 SW10      29.99F
GLASGOW        MOSUNNY   81  73  78 S8        30.01F
$$

KYZ024-025-028>034-038-045-046-053-171500-
NORTH CENTRAL KENTUCKY

CITY           SKY/WX    TMP DP  RH WIND       PRES   REMARKS
LOUISVILLE/SDF MOSUNNY   83  74  74 S12       29.95F
LOUISVILLE/LOU MOSUNNY   82  76  81 S12       29.96F
FORT KNOX      MOSUNNY   81  73  78 S10       29.95F
$$

KYZ035>037-039>044-047>052-055>060-089>105-171500-
NORTHEAST KENTUCKY

CITY           SKY/WX    TMP DP  RH WIND       PRES   REMARKS
LEXINGTON      CLOUDY    80  74  81 SW9       30.01F
COVINGTON      MOSUNNY   81  77  88 S12       29.96F
FRANKFORT      MOSUNNY   80  74  81 SW13      29.98F
$$

KYZ054-064>069-076>088-106>120-171500-
SOUTHEAST KENTUCKY

CITY           SKY/WX    TMP DP  RH WIND       PRES   REMARKS
JACKSON        MOSUNNY   78  73  84 VRB3      30.06S
LONDON         MOSUNNY   80  72  76 W9        30.06S
SOMERSET       CLOUDY    77  75  94 W12       30.06S
MIDDLESBORO    MOSUNNY   79  74  84 CALM      30.09S
MONTICELLO     CLOUDY    80  74  81 W14       30.07S
$$





USA.gov is the U.S. government's official web portal to all federal, state and local government web resources and services.